K9BM Weather Reports


Display with metric or nautical units.
time (UTC)temp
F
wind
direction
speed
MPH
gust
MPH
rain 1hr
in
rain 24hr
in
rain mn
in
humidity
%
barometer
mb
20260906224004 78 81 9.0 14.0 0.00 0.00 0.00 42 1004.2
20260906223504 78 80 10.0 14.0 0.00 0.00 0.00 43 1004.3
20260906223006 78 74 4.0 16.0 0.00 0.00 0.00 43 1004.3
20260906222506 77 93 10.0 16.0 0.00 0.00 0.00 43 1004.5
20260906221506 78 49 5.0 16.0 0.00 0.00 0.00 42 1004.6
20260906221006 78 54 6.0 16.0 0.00 0.00 0.00 42 1004.8
20260906220005 77 34 6.0 13.0 0.00 0.00 0.00 44 1004.7
20260906215006 78 54 6.0 14.0 0.00 0.00 0.00 43 1004.7
20260906214505 78 96 9.0 14.0 0.00 0.00 0.00 44 1004.8
20260906214006 77 34 4.0 13.0 0.00 0.00 0.00 44 1004.8
20260906213506 77 51 5.0 13.0 0.00 0.00 0.00 44 1004.8
20260906213006 77 73 5.0 15.0 0.00 0.00 0.00 44 1004.9
20260906212006 77 62 6.0 15.0 0.00 0.00 0.00 44 1004.9
20260906211505 77 98 8.0 12.0 0.00 0.00 0.00 45 1005.1
20260906211005 77 58 5.0 12.0 0.00 0.00 0.00 45 1005.2
20260906210006 77 83 4.0 18.0 0.00 0.00 0.00 45 1005.3
20260906205505 77 78 7.0 18.0 0.00 0.00 0.00 46 1005.3
20260906204506 76 100 9.0 16.0 0.00 0.00 0.00 48 1005.5
20260906204006 76 92 12.0 16.0 0.00 0.00 0.00 47 1005.6
20260906203506 76 101 9.0 13.0 0.00 0.00 0.00 48 1005.6
20260906203006 76 65 2.0 13.0 0.00 0.00 0.00 48 1005.6
20260906201506 76 55 10.0 15.0 0.00 0.00 0.00 48 1005.8
20260906201006 76 99 8.0 14.0 0.00 0.00 0.00 49 1005.8
20260906200005 75 113 9.0 16.0 0.00 0.00 0.00 50 1006.0
20260906195505 74 97 5.0 16.0 0.00 0.00 0.00 53 1006.0
20260906194506 73 78 9.0 17.0 0.00 0.00 0.00 54 1006.2
20260906194006 73 65 10.0 17.0 0.00 0.00 0.00 55 1006.3
20260906193506 72 75 10.0 17.0 0.00 0.00 0.00 56 1006.5
20260906193005 72 80 9.0 15.0 0.00 0.00 0.00 56 1006.5
20260906192506 73 76 10.0 15.0 0.00 0.00 0.00 54 1006.6
20260906192005 72 65 8.0 16.0 0.00 0.00 0.00 56 1006.7
20260906191506 72 84 10.0 16.0 0.00 0.00 0.00 56 1006.8
20260906191006 72 63 8.0 13.0 0.00 0.00 0.00 56 1006.8
20260906190005 72 56 5.0 14.0 0.00 0.00 0.00 57 1007.0
20260906185506 72 68 9.0 14.0 0.00 0.00 0.00 58 1007.1
20260906185005 71 67 5.0 14.0 0.00 0.00 0.00 58 1007.2
20260906184006 70 66 6.0 13.0 0.00 0.00 0.00 60 1007.4
20260906183506 70 75 8.0 13.0 0.00 0.00 0.00 61 1007.5
20260906182505 69 75 8.0 14.0 0.00 0.00 0.00 63 1007.7
20260906182006 69 19 4.0 10.0 0.00 0.00 0.00 63 1007.8
20260906181505 69 86 3.0 10.0 0.00 0.00 0.00 62 1007.8
20260906180005 68 105 3.0 10.0 0.00 0.00 0.00 65 1008.0
20260906175006 67 44 3.0 10.0 0.00 0.00 0.00 66 1008.0
20260906174505 66 348 3.0 7.0 0.00 0.00 0.00 66 1008.2
20260906174006 66 302 4.0 7.0 0.00 0.00 0.00 66 1008.4
20260906173506 66 289 2.0 8.0 0.00 0.00 0.00 66 1008.4
20260906173006 66 276 2.0 8.0 0.00 0.00 0.00 66 1008.5
20260906172505 66 321 6.0 8.0 0.00 0.00 0.00 67 1008.6
20260906171505 65 335 2.0 9.0 0.00 0.00 0.00 68 1008.7
20260906171006 65 324 6.0 9.0 0.00 0.00 0.00 68 1008.8
20260906170006 64 335 0.0 10.0 0.00 0.00 0.00 68 1008.9
20260906165506 64 334 4.0 10.0 0.00 0.00 0.00 67 1008.9
20260906165006 64 324 4.0 8.0 0.00 0.00 0.00 68 1008.9
20260906164505 63 298 2.0 8.0 0.00 0.00 0.00 70 1009.0
20260906164005 63 304 5.0 8.0 0.00 0.00 0.00 70 1009.0
20260906163506 63 283 3.0 10.0 0.00 0.00 0.00 70 1009.1
20260906163006 63 293 4.0 10.0 0.00 0.00 0.00 69 1009.3
20260906162505 63 302 5.0 9.0 0.00 0.00 0.00 71 1009.3
20260906162005 63 300 5.0 9.0 0.00 0.00 0.00 71 1009.4
20260906161505 62 274 5.0 10.0 0.00 0.00 0.00 71 1009.5
20260906161006 62 299 5.0 10.0 0.00 0.00 0.00 71 1009.5
20260906160005 62 268 5.0 8.0 0.00 0.00 0.00 70 1009.6
20260906155005 61 272 6.0 8.0 0.00 0.00 0.00 72 1009.7
20260906154506 61 254 4.0 7.0 0.00 0.00 0.00 72 1009.8
20260906154006 61 268 3.0 7.0 0.00 0.00 0.00 73 1009.7
20260906153506 61 268 3.0 7.0 0.00 0.00 0.00 74 1009.7
20260906153006 61 253 3.0 5.0 0.00 0.00 0.00 74 1009.8
20260906152005 60 197 0.0 0.0 0.00 0.00 0.00 72 1009.8
20260906151505 60 196 0.0 3.0 0.00 0.00 0.00 72 1009.8
20260906151006 60 196 1.0 3.0 0.00 0.00 0.00 74 1009.8
20260906150005 59 195 1.0 6.0 0.00 0.00 0.00 72 1009.8
20260906144506 57 203 3.0 6.0 0.00 0.00 0.00 71 1010.0
20260906142506 55 227 5.0 8.0 0.00 0.00 0.00 70 1010.0
20260906142006 56 200 5.0 8.0 0.00 0.00 0.00 70 1009.9
20260906141505 56 202 5.0 8.0 0.00 0.00 0.00 70 1009.9
20260906141005 56 213 4.0 8.0 0.00 0.00 0.00 69 1009.8
20260906135507 58 66 0.0 2.0 0.00 0.00 0.00 78 1009.5
20260906135006 57 65 0.0 3.0 0.00 0.00 0.00 78 1009.4
20260906134506 57 66 1.0 3.0 0.00 0.00 0.00 79 1009.3
20260906134005 57 63 2.0 3.0 0.00 0.00 0.00 79 1009.3
20260906133505 56 62 2.0 3.0 0.00 0.00 0.00 78 1009.3
20260906133005 56 62 2.0 5.0 0.00 0.00 0.00 78 1009.3
20260906132505 56 61 3.0 6.0 0.00 0.00 0.00 78 1009.2
20260906132005 56 60 4.0 6.0 0.00 0.00 0.00 78 1009.2
20260906131506 57 61 5.0 7.0 0.00 0.00 0.00 78 1009.3
20260906131005 57 55 5.0 8.0 0.00 0.00 0.00 77 1009.2
20260906130005 57 82 6.0 8.0 0.00 0.00 0.00 76 1009.2
20260906125506 57 81 5.0 8.0 0.00 0.00 0.00 76 1009.3
20260906124505 57 68 3.0 5.0 0.00 0.00 0.00 74 1009.5
20260906124006 57 65 2.0 3.0 0.00 0.00 0.00 73 1009.6
20260906123506 57 64 3.0 3.0 0.00 0.00 0.00 73 1009.6
20260906123006 57 63 2.0 3.0 0.00 0.00 0.00 73 1009.6
20260906122505 57 63 2.0 3.0 0.00 0.00 0.00 73 1009.7
20260906122005 57 63 2.0 3.0 0.00 0.00 0.00 73 1009.7
20260906121505 57 63 2.0 3.0 0.00 0.00 0.00 73 1009.7
20260906121005 57 62 3.0 3.0 0.00 0.00 0.00 74 1009.6
20260906115505 56 61 3.0 3.0 0.00 0.00 0.00 74 1009.6
20260906115006 56 60 1.0 5.0 0.00 0.00 0.00 74 1009.6
20260906114506 56 60 3.0 5.0 0.00 0.00 0.00 74 1009.6
20260906113506 56 61 2.0 6.0 0.00 0.00 0.00 72 1009.7
20260906113006 56 57 5.0 6.0 0.00 0.00 0.00 73 1009.5
20260906112505 55 54 2.0 5.0 0.00 0.00 0.00 73 1009.8
20260906112005 55 54 5.0 5.0 0.00 0.00 0.00 72 1009.5
20260906111506 55 56 3.0 5.0 0.00 0.00 0.00 72 1009.6
20260906111005 55 57 3.0 6.0 0.00 0.00 0.00 72 1009.6
20260906110005 55 47 5.0 5.0 0.00 0.00 0.00 73 1009.7
20260906105505 55 44 5.0 5.0 0.00 0.00 0.00 73 1009.7
20260906105005 55 36 3.0 6.0 0.00 0.00 0.00 72 1009.7
20260906104005 55 42 3.0 6.0 0.00 0.00 0.00 73 1009.8
20260906103506 55 39 3.0 5.0 0.00 0.00 0.00 73 1009.8
20260906103006 55 39 3.0 6.0 0.00 0.00 0.00 73 1009.7
20260906102506 55 42 3.0 6.0 0.00 0.00 0.00 73 1009.7
20260906102006 55 30 3.0 3.0 0.00 0.00 0.00 71 1009.9
20260906101505 55 26 2.0 5.0 0.00 0.00 0.00 69 1009.9
20260906101005 55 27 2.0 7.0 0.00 0.00 0.00 68 1009.9
20260906100006 56 24 2.0 5.0 0.00 0.00 0.00 64 1009.9
20260906095506 56 27 2.0 5.0 0.00 0.00 0.00 62 1009.9
20260906095006 57 25 3.0 5.0 0.00 0.00 0.00 62 1009.9
20260906094505 57 43 3.0 5.0 0.00 0.00 0.00 61 1009.9
20260906094005 57 49 3.0 5.0 0.00 0.00 0.00 59 1009.9
20260906093506 58 54 2.0 3.0 0.00 0.00 0.00 58 1010.0
20260906093005 58 55 2.0 3.0 0.00 0.00 0.00 57 1010.0
20260906092005 58 56 3.0 5.0 0.00 0.00 0.00 57 1010.1
20260906091005 58 52 2.0 5.0 0.00 0.00 0.00 57 1010.1
20260906090006 58 63 3.0 5.0 0.00 0.00 0.00 57 1010.2
20260906085505 58 61 2.0 6.0 0.00 0.00 0.00 57 1010.1
20260906085006 58 58 4.0 6.0 0.00 0.00 0.00 58 1010.0
20260906084506 58 54 4.0 6.0 0.00 0.00 0.00 58 1009.9
20260906084006 58 56 3.0 6.0 0.00 0.00 0.00 57 1010.0
20260906083505 58 57 3.0 6.0 0.00 0.00 0.00 57 1009.9
20260906083005 58 35 3.0 5.0 0.00 0.00 0.00 57 1010.1
20260906082505 58 29 3.0 6.0 0.00 0.00 0.00 57 1010.2
20260906082005 58 32 4.0 6.0 0.00 0.00 0.00 56 1010.1
20260906081505 59 30 5.0 7.0 0.00 0.00 0.00 56 1010.1
20260906081005 59 45 4.0 9.0 0.00 0.00 0.00 55 1010.3
20260906080005 59 45 5.0 8.0 0.00 0.00 0.00 55 1010.2
20260906075505 59 40 4.0 8.0 0.00 0.00 0.00 54 1010.2
20260906075005 59 27 5.0 8.0 0.00 0.00 0.00 54 1010.1
20260906074505 60 27 4.0 7.0 0.00 0.00 0.00 53 1010.2
20260906074005 60 77 3.0 5.0 0.00 0.00 0.00 52 1010.3
20260906073505 60 78 2.0 5.0 0.00 0.00 0.00 52 1010.5
20260906073005 61 79 2.0 3.0 0.00 0.00 0.00 51 1010.5
20260906072505 61 79 2.0 3.0 0.00 0.00 0.00 50 1010.5
20260906071505 61 80 3.0 5.0 0.00 0.00 0.00 51 1010.5
20260906071005 61 81 2.0 3.0 0.00 0.00 0.00 51 1010.6
20260906070005 61 83 2.0 5.0 0.00 0.00 0.00 49 1010.6
20260906065505 62 85 3.0 7.0 0.00 0.00 0.00 49 1010.6
20260906065005 62 85 5.0 7.0 0.00 0.00 0.00 49 1010.6
20260906064505 61 89 3.0 7.0 0.00 0.00 0.00 50 1010.6
20260906064005 61 81 3.0 6.0 0.00 0.00 0.00 50 1010.6
20260906063505 61 92 3.0 6.0 0.00 0.00 0.00 51 1010.7
20260906063005 61 95 2.0 6.0 0.00 0.00 0.00 51 1010.6
20260906061505 61 95 4.0 6.0 0.00 0.00 0.00 50 1010.6
20260906061005 61 89 5.0 6.0 0.00 0.00 0.00 49 1010.6
20260906055505 62 83 2.0 5.0 0.00 0.00 0.00 47 1010.5
20260906055005 63 83 3.0 8.0 0.00 0.00 0.00 46 1010.4
20260906054505 63 76 4.0 9.0 0.00 0.00 0.00 45 1010.3
20260906054005 63 53 6.0 9.0 0.00 0.00 0.00 45 1010.4
20260906052505 64 69 2.0 6.0 0.00 0.00 0.00 44 1010.4
20260906052005 64 61 4.0 6.0 0.00 0.00 0.00 44 1010.5
20260906051505 64 56 5.0 6.0 0.00 0.00 0.00 44 1010.5
20260906051005 64 59 3.0 5.0 0.00 0.00 0.00 44 1010.6
20260906050005 64 59 4.0 5.0 0.00 0.00 0.00 43 1010.7
20260906045505 65 60 3.0 6.0 0.00 0.00 0.00 43 1010.6
20260906045005 65 62 5.0 6.0 0.00 0.00 0.00 42 1010.6
20260906044505 65 66 3.0 5.0 0.00 0.00 0.00 42 1010.6
20260906044005 65 76 2.0 3.0 0.00 0.00 0.00 42 1010.5
20260906043505 65 76 3.0 3.0 0.00 0.00 0.00 42 1010.6
20260906043005 65 78 2.0 8.0 0.00 0.00 0.00 41 1010.5
20260906042505 66 79 3.0 8.0 0.00 0.00 0.00 41 1010.6
20260906042005 66 80 4.0 7.0 0.00 0.00 0.00 41 1010.5
20260906041505 66 64 3.0 8.0 0.00 0.00 0.00 41 1010.5
20260906035506 66 62 6.0 8.0 0.00 0.00 0.00 40 1010.4
20260906035005 66 79 3.0 5.0 0.00 0.00 0.00 40 1010.4
20260906034005 66 66 4.0 8.0 0.00 0.00 0.00 40 1010.3
20260906033505 66 59 5.0 6.0 0.00 0.00 0.00 40 1010.3
20260906033006 66 56 3.0 6.0 0.00 0.00 0.00 40 1010.3
20260906032505 66 56 4.0 5.0 0.00 0.00 0.00 40 1010.3
20260906031505 67 58 3.0 7.0 0.00 0.00 0.00 39 1010.2
20260906030005 67 59 3.0 5.0 0.00 0.00 0.00 40 1010.0
20260906025505 68 61 2.0 7.0 0.00 0.00 0.00 39 1010.0
20260906025007 68 58 4.0 7.0 0.00 0.00 0.00 39 1009.9
20260906024505 68 55 2.0 7.0 0.00 0.00 0.00 38 1009.9
20260906024005 69 53 3.0 7.0 0.00 0.00 0.00 38 1009.7
20260906023505 69 90 5.0 10.0 0.00 0.00 0.00 38 1009.5
20260906023005 69 100 5.0 10.0 0.00 0.00 0.00 38 1009.5
20260906022505 69 96 7.0 10.0 0.00 0.00 0.00 37 1009.4
20260906022005 69 100 7.0 10.0 0.00 0.00 0.00 37 1009.5
20260906020004 71 106 8.0 12.0 0.00 0.00 0.00 35 1009.3
20260906015505 71 101 7.0 13.0 0.00 0.00 0.00 34 1009.2
20260906015005 72 103 10.0 13.0 0.00 0.00 0.00 34 1009.1
20260906014505 72 98 10.0 13.0 0.00 0.00 0.00 33 1009.0
20260906014005 73 107 10.0 16.0 0.00 0.00 0.00 33 1009.0
20260906013505 73 103 11.0 16.0 0.00 0.00 0.00 32 1009.0
20260906013005 74 107 10.0 15.0 0.00 0.00 0.00 31 1008.9
20260906012005 75 95 10.0 15.0 0.00 0.00 0.00 30 1008.8
20260906011505 75 98 9.0 15.0 0.00 0.00 0.00 29 1008.8
20260906011005 76 85 10.0 16.0 0.00 0.00 0.00 28 1008.8
20260906010004 76 87 9.0 16.0 0.00 0.00 0.00 27 1008.8
20260906005505 76 84 12.0 16.0 0.00 0.00 0.00 27 1008.7
20260906005005 76 87 10.0 16.0 0.00 0.00 0.00 27 1008.7
20260906004505 77 63 9.0 15.0 0.00 0.00 0.00 27 1008.7
20260906004005 77 77 11.0 15.0 0.00 0.00 0.00 27 1008.6
20260906003005 77 71 11.0 17.0 0.00 0.00 0.00 26 1008.6
20260906002505 77 49 10.0 14.0 0.00 0.00 0.00 26 1008.6
20260906002006 78 57 9.0 14.0 0.00 0.00 0.00 26 1008.6
20260906001505 78 84 9.0 12.0 0.00 0.00 0.00 26 1008.6
20260906001005 78 88 9.0 16.0 0.00 0.00 0.00 26 1008.7
20260906000005 78 85 9.0 16.0 0.00 0.00 0.00 26 1008.7
20260905235505 78 89 11.0 15.0 0.00 0.00 0.00 26 1008.7
20260905235005 78 70 9.0 16.0 0.00 0.00 0.00 26 1008.7
20260905234505 78 108 12.0 18.0 0.00 0.00 0.00 26 1008.6
20260905234005 77 85 9.0 18.0 0.00 0.00 0.00 26 1008.7
20260905233505 78 59 7.0 14.0 0.00 0.00 0.00 25 1008.6
20260905233005 78 100 9.0 16.0 0.00 0.00 0.00 25 1008.6
20260905232005 79 106 13.0 16.0 0.00 0.00 0.00 25 1008.6
20260905231505 78 85 8.0 16.0 0.00 0.00 0.00 25 1008.6
20260905231005 78 105 13.0 16.0 0.00 0.00 0.00 25 1008.5
20260905230005 78 93 10.0 16.0 0.00 0.00 0.00 26 1008.6
20260905225505 79 72 5.0 14.0 0.00 0.00 0.00 25 1008.6
20260905225005 79 81 8.0 17.0 0.00 0.00 0.00 25 1008.6